QPF
0.00 0.00 0.00 0.00 0.00 0.00 0.00 0.00 0.00 0.00 0.00 0.00 0.00 0.00 0.00 0.00 0.00 0.01 0.02 0.03 0.04 0.06 0.05 0.03 0.01 0.00 0.00
0.00 0.00 0.00 0.00 0.00 0.00 0.00 0.00 0.00 0.00 0.00 0.00 0.00 0.00 0.00 0.00 0.00 0.00 0.00 0.00 0.01 0.02 0.03 0.03 0.02 0.00 0.00
0.00 0.00 0.00 0.00 0.00 0.00 0.00 0.00 0.00 0.00 0.00 0.00 0.00 0.00 0.00 0.00 0.00 0.00 0.00 0.00 0.00 0.01 0.01 0.01 0.01 0.01 0.00
0.00 0.00 0.00 0.00 0.00 0.00 0.00 0.00 0.00 0.00 0.00 0.00 0.00 0.00 0.00 0.00 0.00 0.00 0.00 0.00 0.00 0.01 0.01 0.01 0.01 0.01 0.00
0.00 0.00 0.00 0.00 0.00 0.00 0.00 0.00 0.00 0.00 0.00 0.00 0.00 0.00 0.00 0.00 0.00 0.00 0.00 0.00 0.00 0.00 0.01 0.01 0.00 0.00 0.00
0.00 0.00 0.00 0.00 0.00 0.00 0.00 0.00 0.00 0.00 0.00 0.00 0.00 0.00 0.00 0.00 0.00 0.00 0.00 0.00 0.00 0.00 0.00 0.00 0.00 0.00 0.00
0.01 0.00 0.00 0.00 0.00 0.01 0.00 0.00 0.00 0.00 0.00 0.00 0.00 0.00 0.00 0.00 0.00 0.00 0.00 0.00 0.00 0.00 0.00 0.00 0.00 0.00 0.00
0.00 0.00 0.00 0.00 0.00 0.00 0.00 0.00 0.00 0.00 0.00 0.00 0.00 0.00 0.00 0.00 0.00 0.00 0.00 0.00 0.00 0.00 0.00 0.00 0.00 0.00 0.00
0.00 0.00 0.00 0.00 0.00 0.00 0.00 0.00 0.00 0.00 0.00 0.00 0.00 0.00 0.00 0.00 0.00 0.00 0.00 0.00 0.00 0.00 0.00 0.00 0.00 0.00 0.00
0.00 0.00 0.00 0.00 0.00 0.00 0.00 0.00 0.00 0.00 0.00 0.00 0.00 0.00 0.00 0.00 0.00 0.00 0.00 0.00 0.00 0.00 0.00 0.00 0.00 0.00 0.00
0.00 0.00 0.00 0.00 0.00 0.00 0.00 0.00 0.00 0.00 0.00 0.00 0.00 0.00 0.00 0.00 0.00 0.00 0.00 0.00 0.00 0.00 0.00 0.00 0.00 0.00 0.00
0.00 0.00 0.00 0.00 0.00 0.00 0.00 0.00 0.00 0.00 0.00 0.00 0.00 0.00 0.00 0.00 0.00 0.00 0.00 0.00 0.00 0.00 0.00 0.00 0.00 0.00 0.00
0.00 0.00 0.00 0.00 0.00 0.00 0.00 0.00 0.00 0.00 0.00 0.00 0.00 0.00 0.00 0.00 0.00 0.00 0.00 0.00 0.00 0.00 0.00 0.00 0.00 0.00 0.00
0.00 0.00 0.00 0.00 0.00 0.00 0.00 0.00 0.00 0.00 0.00 0.00 0.00 0.00 0.00 0.00 0.00 0.00 0.00 0.00 0.00 0.00 0.00 0.00 0.00 0.00 0.00
0.00 0.00 0.00 0.00 0.00 0.00 0.00 0.00 0.00 0.00 0.00 0.00 0.00 0.00 0.00 0.00 0.00 0.00 0.00 0.00 0.00 0.00 0.00 0.00 0.00 0.00 0.00
0.00 0.00 0.00 0.00 0.00 0.00 0.00 0.00 0.00 0.00 0.00 0.00 0.00 0.00 0.00 0.00 0.00 0.00 0.00 0.00 0.00 0.00 0.00 0.00 0.00 0.00 0.00
0.00 0.00 0.00 0.00 0.00 0.00 0.00 0.00 0.00 0.00 0.00 0.00 0.00 0.00 0.00 0.00 0.00 0.00 0.00 0.00 0.00 0.00 0.00 0.00 0.00 0.00 0.00
MSLP
1020.15 1020.48 1020.86 1021.01 1021.43 1021.75 1021.90 1022.26 1022.54 1022.80 1022.98 1023.31 1023.65 1023.87 1024.02 1024.23 1024.47 1024.69 1024.93 1025.04 1025.20 1025.30 1025.55 1025.88 1026.15 1026.53 1027.25
1019.95 1020.33 1020.44 1020.66 1020.67 1021.12 1021.32 1021.57 1021.85 1022.10 1022.37 1022.64 1022.94 1023.18 1023.34 1023.52 1023.75 1024.00 1024.24 1024.37 1024.54 1024.66 1024.79 1024.95 1025.06 1025.35 1026.19
1019.35 1019.64 1019.95 1020.26 1020.75 1020.98 1021.03 1021.01 1021.21 1021.41 1021.71 1022.03 1022.30 1022.55 1022.81 1023.01 1023.17 1023.34 1023.51 1023.63 1023.80 1023.90 1024.12 1024.29 1024.69 1024.90 1025.38
1018.59 1019.12 1019.43 1019.80 1020.04 1020.35 1020.88 1020.79 1020.94 1021.11 1021.26 1021.44 1021.70 1021.94 1022.11 1022.35 1022.43 1022.61 1022.81 1022.97 1023.12 1023.30 1023.46 1023.70 1024.05 1024.48 1024.85
1017.94 1018.50 1018.80 1019.38 1019.46 1019.69 1020.17 1020.31 1020.51 1020.77 1020.97 1020.97 1021.20 1021.43 1021.48 1021.74 1021.88 1022.07 1022.23 1022.42 1022.52 1022.68 1022.83 1023.02 1023.30 1023.74 1024.31
1016.64 1017.26 1017.68 1017.97 1018.33 1018.77 1019.48 1020.23 1020.62 1019.95 1020.49 1020.58 1020.68 1020.92 1020.94 1021.19 1021.30 1021.52 1021.70 1021.84 1021.95 1022.01 1022.12 1022.41 1022.67 1023.14 1023.64
1015.36 1015.85 1016.35 1016.83 1017.73 1018.41 1018.79 1019.12 1019.30 1019.54 1019.95 1020.28 1020.49 1020.54 1020.48 1020.71 1020.99 1021.01 1021.12 1021.20 1021.38 1021.61 1021.67 1021.87 1022.19 1022.65 1023.21
1014.38 1014.78 1015.44 1016.01 1016.56 1017.06 1017.71 1018.39 1019.12 1019.34 1019.48 1020.08 1020.13 1020.27 1020.49 1020.56 1020.81 1020.96 1020.73 1020.77 1020.88 1021.06 1021.16 1021.37 1021.74 1022.32 1023.04
1013.74 1014.25 1014.92 1015.44 1015.88 1016.90 1017.52 1018.60 1019.03 1019.21 1019.22 1019.53 1020.00 1020.30 1020.66 1020.64 1020.50 1020.86 1020.67 1020.54 1020.53 1020.70 1020.75 1020.94 1021.37 1021.95 1022.65
1013.83 1014.37 1014.74 1014.98 1015.33 1015.58 1016.65 1017.66 1018.41 1018.81 1018.71 1019.19 1019.87 1020.23 1020.60 1020.60 1020.80 1020.77 1020.69 1020.58 1020.53 1020.43 1020.51 1020.78 1021.19 1021.82 1022.38
1013.00 1013.87 1014.35 1014.62 1015.06 1015.25 1015.67 1016.32 1017.13 1017.58 1017.69 1018.29 1019.27 1019.84 1020.14 1020.44 1020.69 1020.74 1020.63 1020.72 1020.57 1020.42 1020.30 1020.63 1020.96 1021.39 1022.09
1012.70 1013.36 1013.88 1014.34 1014.69 1014.87 1015.35 1016.03 1016.33 1016.71 1017.03 1017.50 1018.50 1018.85 1019.55 1020.33 1020.66 1020.69 1020.68 1020.67 1020.70 1020.63 1020.42 1020.21 1020.48 1020.84 1021.35
1012.28 1012.81 1013.20 1013.80 1014.59 1015.30 1016.09 1016.36 1016.80 1017.21 1017.32 1017.63 1017.81 1018.48 1018.91 1019.41 1019.92 1020.23 1020.45 1020.52 1020.69 1020.71 1020.66 1020.45 1020.61 1020.96 1021.58
1011.70 1012.50 1013.27 1013.83 1014.51 1015.07 1016.01 1016.51 1017.09 1017.84 1018.00 1017.94 1018.01 1018.25 1018.85 1019.24 1019.46 1019.97 1020.17 1020.47 1020.61 1020.85 1020.94 1021.01 1021.16 1021.34 1021.47
1011.40 1012.27 1013.10 1013.69 1014.35 1014.84 1015.26 1016.11 1016.61 1017.41 1018.12 1018.41 1018.57 1018.61 1018.87 1019.11 1019.52 1019.69 1019.98 1020.40 1020.55 1020.92 1021.17 1021.21 1021.20 1021.35 1021.64
1011.15 1011.85 1012.62 1013.41 1014.08 1014.79 1015.20 1015.62 1016.28 1017.09 1017.58 1018.17 1018.76 1018.97 1019.21 1019.31 1019.39 1019.58 1019.97 1020.26 1020.52 1020.86 1021.09 1021.31 1021.26 1021.29 1021.42
1011.37 1011.89 1012.45 1013.21 1013.92 1014.69 1015.21 1015.73 1016.32 1016.83 1017.57 1017.97 1018.42 1018.61 1018.99 1019.20 1019.60 1019.56 1019.94 1020.39 1020.71 1020.98 1021.08 1021.31 1021.29 1021.09 1021.04
Thickness
5598 5596 5594 5595 5592 5590 5589 5586 5583 5580 5577 5574 5571 5569 5566 5563 5559 5556 5551 5548 5544 5539 5534 5528 5523 5518 5509
5588 5587 5588 5587 5588 5586 5584 5583 5579 5576 5573 5572 5568 5565 5563 5561 5557 5553 5548 5545 5540 5536 5532 5526 5521 5516 5507
5584 5583 5582 5580 5577 5577 5578 5577 5574 5572 5570 5569 5565 5562 5559 5556 5553 5549 5545 5542 5538 5534 5528 5524 5518 5511 5503
5579 5577 5578 5576 5575 5575 5569 5568 5567 5565 5565 5564 5560 5558 5555 5551 5549 5546 5541 5538 5534 5530 5525 5520 5514 5507 5500
5574 5569 5571 5567 5570 5568 5566 5564 5561 5559 5559 5558 5556 5553 5552 5547 5544 5541 5537 5533 5530 5525 5521 5516 5510 5503 5494
5573 5572 5570 5571 5566 5565 5560 5554 5555 5557 5552 5553 5550 5548 5546 5542 5540 5536 5531 5527 5524 5520 5516 5510 5505 5497 5489
5572 5571 5570 5566 5559 5554 5553 5552 5555 5550 5546 5546 5542 5540 5539 5535 5531 5528 5525 5521 5517 5512 5508 5503 5497 5490 5482
5567 5567 5564 5560 5557 5555 5550 5547 5541 5540 5538 5535 5533 5532 5528 5525 5522 5518 5516 5512 5509 5505 5501 5496 5490 5482 5473
5559 5557 5554 5552 5550 5543 5540 5532 5530 5529 5528 5527 5523 5520 5515 5514 5514 5507 5506 5504 5500 5496 5492 5488 5481 5473 5465
5548 5545 5543 5543 5542 5541 5535 5528 5520 5518 5520 5515 5509 5507 5505 5502 5499 5497 5494 5492 5489 5485 5482 5477 5470 5463 5456
5541 5537 5535 5534 5532 5531 5529 5525 5516 5514 5515 5508 5501 5495 5493 5491 5487 5484 5483 5479 5477 5475 5471 5466 5460 5455 5448
5530 5529 5527 5525 5523 5522 5517 5514 5512 5509 5506 5503 5494 5491 5485 5477 5475 5471 5469 5467 5464 5461 5460 5457 5453 5448 5442
5520 5520 5517 5514 5509 5505 5501 5499 5496 5493 5491 5488 5486 5480 5475 5471 5467 5461 5458 5455 5452 5449 5447 5446 5443 5438 5430
5511 5504 5500 5499 5496 5493 5487 5484 5480 5474 5472 5472 5470 5467 5462 5458 5455 5449 5446 5444 5439 5435 5433 5431 5428 5424 5420
5496 5491 5487 5485 5481 5479 5477 5472 5470 5464 5457 5454 5452 5450 5447 5444 5440 5437 5433 5429 5426 5422 5419 5417 5415 5411 5407
5483 5481 5477 5473 5469 5464 5462 5461 5456 5449 5445 5440 5435 5433 5431 5428 5426 5423 5419 5416 5413 5409 5406 5403 5401 5398 5395
5465 5464 5462 5459 5455 5450 5447 5444 5439 5435 5429 5426 5423 5423 5421 5421 5411 5409 5406 5401 5398 5395 5393 5389 5384 5383 5382